{"data":{"norad_id":48269,"intl_designator":"2021-034B","name":"LEMUR-2-AMANDA-SVANTE","alt_names":[],"object_type":"PAYLOAD","status":"ACTIVE","operator":null,"country":"US","launch_date":"2021-04-29","launch_site_code":"FRGUI","launch_vehicle":null,"mission":null,"orbit_class":"UNKNOWN","rcs_meters":null,"size_class":null,"mass_kg":null,"dimensions":null,"purposes":["earth_obs"],"wikipedia_slug":null,"has_3d_model":false,"image_url":null,"decayed_at":null,"tle_current":{"epoch":"2026-05-25T03:05:10.463712Z","epoch_age_seconds":61172,"freshness":"FRESH","line1":"1 48269U 21034B   26145.12859333  .00030884  00000+0  97712-3 0  9992","line2":"2 48269  97.5766 222.8332 0001287  27.1940 332.9368 15.32718194277522","mean_motion":15.32718194,"eccentricity":0.0001287,"inclination_deg":97.5766,"raan_deg":222.8332,"arg_perigee_deg":27.194,"mean_anomaly_deg":332.9368,"bstar":0.00097712,"rev_number":27752,"period_min":93.950734429659,"perigee_km":466.82543220301,"apogee_km":468.58755231791,"semimajor_km":6845.8434922605,"source":"CELESTRAK","updated_at":"2026-05-25T13:38:13.531549Z"}}}